COSMOS 2251 DEB, 38483

Orbit data source: Space-Track

COSMOS 2251 DEB, 38483 is space debris in LEO originally from a launch on Wed, 16 Jun 1993 UTC launched from the Plesetsk Missile And Space Complex (PKMTR). The debris from Iridium 33, an American commercial communications satellite, has been tracked extensively since its accidental collision with the defunct Russian satellite Cosmos 2251 in 2009. This event, occurring at high speed in low Earth orbit (LEO), generated thousands of pieces of space debris, significantly increasing the risk of further collisions. The Iridium 33 debris cloud has impacted space traffic management and orbital debris mitigation strategies, making it a subject of ongoing study in space situational awareness.

Loading next visibility...
Identifier
38483, 1993-036BTT
Orbit
LEO
Country
Flag of CISCIS
Related business
Manufacturer
Unknown
Mission
Spacecraft
Bus & Motor
Unknown
Mass
Unknown
Launch date (UTC)
1993-06-16 (33 years ago)
Launch vehicle
Unknown
Launch site
Plesetsk Missile And Space Complex (PKMTR)
Object type
Payload
Rocket body
Debris
Shape & HBR
Unknown shape, 0.1 m
Radar Cross Section
Small (<0.1 m²)

Expand to show TLE details & history
Last TLE update: 8 hours ago

TLE from 8 hours ago
0 COSMOS 2251 DEB
1 38483U 93036BTT 26121.27276207  .00001769  00000-0  65442-3 0  9999
2 38483  74.2582 121.8364 0114030 186.3839 173.5867 14.29496691654719
Epoch: 2026-05-01T06:32Z
TLE epoch observation values (Epoch: 2026-05-01T06:32:46.642Z)
Latitude
-0.00008°
Longitude
164.43464°
Altitude
877.32 km
Speed
7.372 km/s
True Right ascension
08h 07m 20s
True Declination
0° 00' 00"
Sunlit
Object was in daylight at epoch
Visualization orbit readout
Latitude
Unknown
Longitude
Unknown
Altitude
Unknown
Speed
Unknown
Apparent Right ascension
Unknown
Apparent Declination
Unknown
Sunlit
N/A
Visualization observer readout
Local Sidereal Time
21:56:09
Azimuth
Unknown
Elevation
Unknown
Doppler factor
Unknown
Orbital elements
Apogee altitude
872.776 km
Perigee altitude
709.276 km
Semi-major axis
7,169.163 km
Eccentricity
0.0114
Inclination
74.2582°
RAAN
121.8364°
Arg. of periapsis
186.3839°
True anomaly
173.73062°
Mean anomaly
173.5867°
Eccentric anomaly
173.65886°
Mean motion
3.57553 °/min
Orbital period
100.68 mins
BSTAR
0.00065442
Loading maneuver chart data...
Computing Atmospheric mass density...

Documentation

Showing up to 5 results
|